Torna al catalogo

FENGYUN 1C DEB

LostPO
NORAD 35164·DEBRIS·🇨🇳 China

Lanciato May 10, 1999 da Taiyuan Satellite Launch Center

Loading…

Prossimi Passaggi (prossime 24 ore)

TLE

ObsoletoSource: Space-Track

Epoca: Sep 4, 2024, 08:07 UTC

1 35164U 99025DMU 24248.33836170  .00008180  00000-0  59242-2 0  9996
2 35164  98.5772  85.4320 0202150  46.6106 315.1691 13.87422368565640

Traccia FENGYUN 1C DEB in tempo reale con AllMySat

Download on the App Store